Theta_e
314 313 311 302 299 298 301 306 306 310 311 312 314 315 315 312 309 306 306 306 305 304 305 307 307 307 306 307 312 311 313 320 327 327 325 328 329 330 329 331 330 332 334 333 332 336 342 336 337 344 338 338 333 334
314 313 309 300 298 298 300 306 307 311 311 312 314 315 314 312 309 305 304 306 305 306 306 309 309 308 308 307 305 305 310 325 322 326 327 330 329 328 328 333 328 330 333 335 331 334 334 331 335 334 332 334 334 334
313 313 306 299 298 299 302 306 309 310 311 312 314 315 314 311 309 306 304 304 307 304 307 305 305 308 308 309 307 305 307 319 321 317 320 326 330 327 328 326 330 331 326 332 332 336 334 330 332 333 332 332 332 332
313 312 304 298 298 301 304 307 310 310 311 313 313 314 313 311 309 307 304 306 306 305 307 304 307 309 309 307 307 307 307 314 315 312 314 321 326 325 328 327 330 330 329 328 333 335 331 331 329 331 331 330 332 333
312 310 302 298 299 303 305 307 309 311 313 313 314 314 313 311 309 307 307 308 306 307 307 306 308 308 309 310 312 308 307 306 312 314 318 320 321 326 325 325 329 328 328 331 332 332 333 329 328 329 330 329 328 334
312 306 299 298 299 300 302 308 309 311 313 313 314 314 312 310 308 305 303 309 308 307 304 303 302 303 308 310 313 308 308 309 313 315 315 315 315 319 320 326 327 327 326 327 330 327 325 325 325 325 327 325 327 325
308 302 298 298 300 301 304 308 310 311 313 314 314 313 312 309 308 306 306 308 305 306 302 304 306 308 314 311 311 311 313 312 313 313 315 315 314 316 317 326 326 327 324 325 326 326 328 326 325 325 325 331 330 333
304 300 299 299 300 302 305 307 310 311 314 313 313 312 311 309 308 307 310 310 309 305 305 306 308 309 314 312 311 309 311 311 313 314 312 312 311 314 315 320 327 326 325 326 326 326 323 324 327 329 329 329 329 329
300 299 298 299 300 302 303 306 309 311 313 312 311 310 308 305 305 309 308 307 308 306 307 309 310 311 311 315 314 313 311 314 312 316 314 312 312 316 315 325 327 327 326 324 323 325 325 328 328 329 328 327 327 327
300 300 298 298 299 302 305 307 310 312 311 311 309 305 307 307 308 305 304 304 302 301 301 305 305 309 311 315 315 316 316 315 314 314 312 313 312 315 322 325 325 325 324 324 318 323 327 328 328 327 327 325 325 324
298 298 297 297 300 303 308 310 312 311 309 307 304 305 308 308 307 306 308 306 306 309 305 306 305 305 306 315 314 315 320 318 319 316 316 316 327 325 323 322 322 320 316 318 318 318 323 325 323 326 326 323 323 322
297 297 296 296 301 305 309 311 311 310 310 308 306 307 308 305 306 311 311 311 312 314 311 310 309 305 306 308 314 320 325 320 325 325 324 328 326 324 322 320 319 320 323 325 325 326 326 325 324 323 322 322 322 322
297 297 296 296 302 307 309 310 310 309 309 309 310 312 309 308 309 316 317 313 314 313 313 309 309 307 306 310 321 326 324 325 320 326 326 327 325 324 323 322 321 322 324 324 325 324 322 321 322 323 322 323 323 323
298 297 295 297 304 305 308 310 308 307 307 309 312 307 314 314 314 313 313 312 312 313 313 310 310 310 311 318 320 323 321 323 326 324 329 327 326 324 324 322 324 324 323 324 324 324 322 321 320 321 320 319 321 323
297 295 295 296 303 305 307 308 306 306 308 310 311 313 312 312 311 311 311 312 312 314 312 309 309 308 309 322 321 322 325 327 326 328 328 327 325 324 323 323 322 322 322 322 322 321 319 319 318 318 318 318 317 322
297 297 295 295 303 306 307 308 307 306 308 311 312 313 312 313 311 311 312 312 311 313 313 307 310 311 321 321 323 325 325 326 327 328 327 325 325 323 322 321 321 320 319 319 322 323 323 320 318 319 319 321 320 321
295 297 294 296 303 306 306 306 305 306 310 311 310 309 311 312 313 313 314 314 314 314 315 311 311 313 317 320 323 320 322 322 325 326 325 323 323 319 318 318 319 319 317 318 319 320 320 320 323 322 320 322 322 322
298 298 294 301 306 306 305 305 307 308 310 307 308 308 311 313 313 313 314 315 313 313 312 315 314 316 316 320 321 320 321 321 323 325 325 323 322 320 318 317 320 319 321 320 320 320 321 321 319 321 321 322 322 321
300 297 299 304 306 304 304 305 307 308 307 306 308 307 309 311 310 311 313 314 315 314 313 314 316 315 317 318 320 319 322 323 323 324 324 324 323 323 321 321 322 321 321 321 322 321 322 321 322 322 322 322 321 321
300 297 302 304 305 306 307 306 306 307 310 309 308 308 309 310 309 311 313 313 311 311 314 316 315 317 317 317 317 317 318 318 322 323 324 323 323 322 321 321 320 320 320 322 323 320 321 322 322 323 323 323 321 321
302 301 304 305 306 306 307 305 306 306 307 307 309 308 308 309 309 310 312 311 313 312 313 315 315 314 315 316 317 318 317 316 320 322 323 322 321 323 323 324 324 325 322 319 317 317 319 320 322 323 323 322 321 320
302 303 304 305 306 307 306 308 308 307 307 307 311 312 312 313 313 314 312 314 314 314 313 314 316 314 315 317 316 316 317 317 319 322 321 319 316 317 319 321 322 319 320 318 319 318 318 323 323 323 322 322 321 321
303 303 303 305 307 304 306 310 310 310 312 312 312 314 314 314 314 312 313 314 315 315 313 312 313 316 315 316 317 318 317 316 318 319 318 319 319 320 320 319 319 318 317 318 318 318 318 320 320 320 320 320 321 320
303 304 305 305 307 307 309 311 311 311 311 313 313 313 314 315 314 316 318 316 315 315 314 312 312 312 312 313 314 314 315 316 320 319 320 319 316 318 319 319 320 318 318 319 319 319 320 320 320 320 319 319 318 318
302 306 306 310 309 310 312 313 312 313 313 312 314 314 316 315 317 316 318 318 316 316 316 315 313 312 313 314 314 313 317 318 318 318 319 319 319 318 317 317 318 318 318 319 319 318 317 317 319 319 319 318 318 317
302 305 306 308 308 311 311 311 310 312 312 314 314 316 316 319 320 320 318 318 316 316 315 316 317 315 313 313 313 316 319 321 319 317 319 319 318 317 315 316 317 317 317 317 316 316 316 317 317 317 317 319 318 318
304 306 305 305 308 311 311 312 312 313 316 316 316 315 317 318 317 319 317 315 317 317 318 318 319 316 316 317 317 318 320 319 319 319 319 318 318 318 318 318 317 318 318 317 316 317 316 315 316 317 317 317 317 317
302 306 309 308 310 311 313 314 314 315 318 318 316 319 321 323 321 319 317 318 316 318 318 318 318 318 318 318 319 318 318 318 317 317 318 318 317 318 317 317 317 316 317 317 317 316 315 315 315 316 316 316 316 316
305 307 311 310 311 312 314 316 315 315 315 317 320 320 319 317 317 319 319 318 318 318 318 317 318 318 318 318 318 318 317 317 317 318 318 317 315 316 317 315 315 317 317 317 317 316 315 317 317 316 315 314 315 315
308 310 314 312 313 317 317 316 319 319 318 318 317 316 316 316 317 318 318 318 318 318 318 318 318 319 317 318 318 317 317 318 317 316 315 315 315 315 316 316 316 316 316 316 315 315 316 316 317 317 317 316 316 316
314 312 317 316 321 319 319 318 318 318 317 316 316 317 317 317 315 317 318 318 318 318 319 318 318 317 317 316 316 316 315 317 317 317 316 315 312 311 311 313 313 314 314 315 316 316 315 313 315 316 316 315 313 314
318 319 320 320 319 318 317 318 318 318 317 317 317 314 314 316 315 315 316 316 317 318 317 317 317 317 318 316 314 317 316 316 314 310 309 309 309 309 310 310 309 308 308 307 307 307 306 306 306 306 305 306 303 303
318 318 319 319 318 319 318 317 318 319 318 319 319 318 317 318 319 317 317 317 317 317 316 313 315 314 310 310 309 311 313 310 309 308 308 307 307 307 306 306 305 305 305 304 304 303 303 303 302 301 301 300 299 300
Wind_Speed
25 23 20 18 15 13 13 12 12 11 13 11 14 14 13 10 8 7 8 9 4 2 7 11 6 4 3 1 2 5 5 4 4 4 2 2 1 2 1 2 3 2 4 2 3 5 5 16 2 2 2 3 4 2
26 24 20 18 16 14 13 12 10 10 10 11 13 14 13 10 8 6 6 2 11 6 7 24 30 34 29 27 2 4 3 2 3 3 1 2 2 2 2 3 3 2 3 2 2 3 4 7 2 2 4 2 1 3
26 22 21 19 16 14 12 11 8 11 11 13 14 15 13 10 9 8 8 10 6 3 7 3 7 12 15 30 32 4 4 5 3 5 3 1 3 3 2 3 1 1 3 3 3 3 2 8 9 8 7 2 3 6
26 22 21 17 15 13 11 9 9 13 12 14 15 15 12 10 9 9 8 5 5 4 3 6 16 23 20 15 20 37 18 1 1 1 3 3 3 4 4 4 2 4 4 3 3 7 5 9 6 4 5 2 8 6
26 23 21 17 15 13 11 9 9 13 11 13 15 14 12 9 7 9 14 19 10 2 3 6 24 22 18 11 11 31 23 4 2 1 1 3 2 3 2 2 3 4 4 3 4 12 7 9 9 10 3 3 6 6
26 23 20 16 13 12 12 11 11 12 11 12 14 13 12 8 6 4 3 4 7 7 1 4 7 8 22 18 8 12 12 5 4 4 3 4 3 3 1 2 4 4 5 5 3 5 4 4 7 4 5 4 7 7
27 23 18 15 14 12 12 11 14 13 12 13 15 13 11 8 8 5 4 6 2 8 1 4 5 6 10 5 0 1 3 3 4 2 3 4 4 3 1 3 6 7 5 6 2 6 4 5 3 6 3 6 11 9
25 23 19 16 13 12 13 11 14 14 14 15 14 12 9 7 8 10 10 11 12 4 0 2 5 5 7 3 1 2 2 2 2 4 3 2 4 1 3 7 6 4 4 5 4 5 5 4 5 6 10 9 9 5
27 22 17 16 15 13 12 12 14 14 17 16 15 11 4 4 4 4 3 1 13 2 1 2 2 4 5 3 2 3 3 2 2 4 4 4 2 3 7 7 6 6 6 6 4 6 4 10 8 7 9 8 8 4
26 23 19 16 15 13 12 15 17 17 20 20 11 4 2 6 2 3 2 2 2 2 1 3 2 4 3 3 4 3 1 4 1 5 3 4 5 4 6 10 9 7 7 6 4 5 3 5 6 5 8 6 6 6
24 23 22 19 16 13 15 18 20 26 24 6 5 3 2 4 3 1 2 3 2 3 4 4 7 4 2 2 3 2 3 2 1 4 4 1 2 1 1 5 7 8 9 6 3 4 10 10 8 8 7 7 10 9
22 21 19 17 15 14 19 20 29 18 11 8 5 2 2 1 1 1 3 3 4 4 3 4 5 5 3 3 1 4 2 2 2 2 2 1 3 3 5 6 6 7 10 12 8 8 9 8 8 8 6 5 4 5
20 18 17 16 16 15 20 23 30 12 16 6 3 2 3 1 0 4 4 3 3 3 3 2 1 3 2 0 3 3 4 3 5 1 1 3 1 4 3 2 7 7 15 14 14 18 18 13 13 12 9 7 9 4
18 17 16 15 16 15 20 28 20 18 3 3 3 2 4 4 5 5 4 3 5 3 1 2 0 1 2 1 3 3 3 2 3 1 4 2 1 2 6 5 10 7 9 11 10 11 10 9 7 6 7 5 2 5
15 13 13 13 16 16 20 27 21 11 2 3 4 4 6 5 4 3 5 4 7 7 2 2 2 3 2 1 1 2 3 4 4 3 2 4 6 4 6 6 8 7 7 7 9 7 8 11 10 8 1 6 6 2
18 14 13 14 16 15 25 26 14 2 2 1 3 3 4 0 4 4 6 3 2 2 2 3 1 1 1 1 0 1 4 5 5 2 3 4 5 6 6 6 6 8 9 9 9 8 8 8 9 7 4 2 8 2
14 4 16 19 16 21 27 7 3 1 2 3 4 3 2 4 5 4 3 3 5 3 2 2 1 2 2 2 1 1 2 4 7 2 3 5 7 7 7 6 7 7 7 8 7 5 3 4 6 6 3 5 8 9
4 10 23 24 26 25 6 3 3 2 4 4 3 3 1 3 4 5 2 2 3 1 1 1 2 2 2 3 2 3 2 5 9 4 3 4 5 5 7 5 5 4 5 7 5 2 1 2 1 6 9 12 11 11
11 21 27 31 21 6 3 1 2 2 6 3 3 3 3 4 4 4 1 1 2 1 3 3 1 1 1 1 2 4 3 1 6 2 2 4 6 6 7 4 3 5 5 1 1 6 6 5 9 11 11 14 14 14
14 21 27 25 12 4 4 2 5 2 3 4 3 2 2 3 3 2 0 2 2 2 3 0 1 0 1 1 1 1 3 3 5 4 2 1 2 3 5 6 6 3 5 8 9 7 3 1 4 13 11 12 14 16
17 21 20 12 2 3 1 3 3 3 4 2 3 4 3 2 3 2 1 1 3 2 2 1 3 4 6 6 6 8 10 7 2 3 6 2 5 6 9 8 4 4 3 1 3 4 1 2 5 10 11 11 14 13
13 17 5 4 2 3 2 7 3 3 2 3 3 0 1 1 2 1 2 2 2 3 3 3 2 2 2 3 5 4 15 16 21 17 9 2 2 2 1 1 3 1 2 3 3 4 5 4 2 5 7 11 11 13
14 10 3 3 3 2 5 2 2 3 3 2 1 1 1 1 1 2 0 2 2 3 4 2 3 4 5 7 8 8 15 18 11 7 4 5 4 7 8 5 3 1 1 2 4 6 6 6 8 7 9 12 9 8
10 4 3 3 2 3 2 2 3 1 1 1 0 2 1 2 1 1 2 2 3 1 3 4 5 3 2 3 3 5 17 15 13 8 5 12 4 3 3 4 3 2 2 4 5 8 8 9 8 7 4 4 5 5
4 2 3 4 3 3 3 2 1 1 3 3 1 3 2 2 1 1 2 2 2 3 3 1 2 3 3 3 5 16 26 17 8 4 7 7 5 5 7 7 11 13 10 10 7 6 7 9 6 3 4 7 8 8
3 4 4 4 3 3 3 3 4 3 3 3 4 1 1 1 2 2 2 2 2 3 2 4 4 1 3 7 6 3 2 13 9 7 4 3 6 4 2 3 3 8 13 14 13 10 12 12 12 11 3 9 10 10
3 4 2 1 2 1 2 2 1 1 3 3 2 2 1 2 2 3 2 2 3 6 5 5 10 10 9 10 9 10 12 10 9 7 5 9 11 9 6 3 3 5 6 8 8 7 6 9 12 12 15 16 10 13
2 2 4 4 2 1 2 3 4 4 4 4 2 4 3 4 4 2 3 1 11 7 4 8 12 12 6 6 12 14 11 9 9 8 11 11 8 5 3 4 6 7 12 14 12 8 11 15 13 15 16 20 19 16
3 3 3 5 1 2 3 2 3 3 3 4 3 4 4 3 5 5 12 11 12 20 22 15 18 14 12 12 10 8 4 5 6 4 2 1 4 5 4 5 14 19 20 19 17 17 18 19 19 18 20 17 6 9
4 5 2 5 4 7 6 8 3 5 7 8 6 8 6 4 14 15 21 24 20 17 12 13 15 15 15 15 12 10 9 9 4 5 1 2 5 5 14 18 18 18 18 20 23 27 25 23 19 14 9 9 9 11
7 5 8 8 5 6 9 10 12 12 7 6 7 8 5 1 12 25 25 18 14 17 18 17 16 18 14 13 8 3 5 3 3 8 11 9 11 13 15 14 15 14 14 15 15 16 12 16 14 11 9 7 7 6
5 6 9 10 6 5 10 9 7 6 4 7 5 4 3 3 5 8 18 19 19 15 12 12 11 11 11 11 14 8 10 14 14 12 13 14 16 14 12 11 14 16 18 20 20 20 18 17 18 18 20 19 17 17
4 4 4 3 4 5 3 6 5 8 10 8 7 5 4 4 4 2 10 10 10 12 17 17 14 12 17 19 20 16 10 13 11 13 14 14 14 13 14 16 17 18 19 19 19 18 19 19 18 19 18 16 18 17
Wind_Direction
238 239 240 239 241 249 253 252 262 247 204 220 221 219 222 226 235 262 274 266 242 246 276 249 253 215 306 245 231 295 355 350 12 59 58 311 72 305 352 195 303 343 349 353 318 43 3 345 57 298 227 104 188 267
234 234 234 234 236 241 247 245 256 214 202 218 215 216 218 218 228 256 281 267 322 203 250 283 275 265 252 240 218 306 236 286 224 97 225 229 346 344 286 332 187 350 162 226 67 173 250 289 53 25 9 357 338 110
231 230 232 230 230 234 233 244 234 205 213 214 208 215 213 214 224 239 285 324 336 310 290 273 258 320 266 243 225 167 263 205 260 194 152 150 265 144 357 271 288 257 158 169 135 46 26 354 352 5 37 337 43 62
225 221 228 229 228 228 225 229 218 210 217 206 203 209 207 212 225 245 262 252 303 277 276 284 317 304 295 272 218 212 216 254 91 18 172 198 222 187 203 226 169 194 126 151 93 114 62 10 299 294 266 178 65 57
219 214 220 218 224 223 219 220 212 207 209 198 199 199 203 214 231 258 275 278 258 192 265 284 300 287 312 289 260 206 216 202 217 269 156 244 157 133 236 66 279 159 186 182 211 184 146 207 230 229 278 204 142 136
211 206 212 209 218 223 215 207 193 196 196 196 190 198 200 207 225 283 339 69 141 216 252 307 293 291 296 299 263 178 199 201 195 157 230 265 249 123 153 193 256 219 175 189 199 172 186 257 223 241 247 223 196 161
199 198 205 204 202 207 206 199 187 190 198 196 191 192 194 204 213 211 219 146 140 341 28 306 300 273 297 237 126 161 153 185 148 210 238 218 278 106 156 204 238 234 216 222 184 136 226 221 251 252 251 66 95 92
189 189 191 194 198 194 195 194 186 187 186 176 176 182 188 212 262 275 263 250 239 271 356 273 275 329 4 338 225 164 165 68 245 204 317 218 335 102 243 247 201 228 46 300 265 248 295 142 155 87 83 79 56 39
180 179 181 191 195 193 189 186 177 171 170 170 160 159 170 218 228 253 274 254 188 166 228 270 263 275 347 324 293 325 127 191 246 185 225 125 259 220 230 188 198 202 191 224 323 197 155 118 108 102 97 82 92 74
180 176 172 197 189 188 179 169 166 166 162 151 142 151 231 216 214 192 204 48 24 280 233 233 249 268 29 351 313 350 236 206 243 241 112 166 241 271 220 184 194 201 213 254 206 137 118 108 129 113 102 113 125 128
174 178 183 184 180 173 165 162 166 156 142 164 178 208 235 131 186 211 233 169 188 238 215 231 201 219 282 177 257 190 293 247 190 274 140 200 327 312 94 140 199 201 209 217 167 140 173 151 154 136 145 137 138 154
175 174 173 172 170 165 159 167 163 153 161 170 161 200 140 154 305 244 230 260 187 229 221 187 217 185 254 169 126 334 277 345 247 294 73 83 236 151 189 175 102 82 71 58 75 96 105 99 99 90 84 107 198 192
167 165 165 168 163 155 164 170 166 157 136 112 53 36 72 268 137 215 220 239 230 233 219 173 246 174 319 194 75 86 288 289 310 351 240 228 281 105 159 99 89 84 89 83 78 83 89 89 105 123 141 155 149 88
156 158 161 164 159 156 172 174 160 161 133 124 160 146 212 208 231 206 220 203 254 252 190 134 207 166 311 69 153 154 244 278 312 311 220 163 244 111 101 108 98 86 89 98 107 114 123 128 125 140 140 156 160 352
160 155 158 167 164 170 174 171 163 173 173 180 165 214 218 238 273 244 242 267 267 271 154 52 19 102 289 90 30 85 35 349 283 222 221 158 139 148 92 89 97 96 93 92 107 118 133 149 149 155 205 293 255 56
160 157 177 168 168 167 177 171 164 60 331 270 249 281 294 195 295 279 270 248 278 7 17 68 91 47 297 117 33 253 159 176 247 239 176 144 119 101 106 99 101 109 109 110 124 127 154 167 189 213 252 304 175 130
153 152 165 157 153 159 163 119 122 142 263 249 254 258 254 260 249 268 304 328 324 26 307 113 142 226 93 47 296 132 256 279 299 248 141 136 131 142 139 125 120 127 129 137 133 131 156 153 167 189 234 239 212 219
102 137 154 149 149 141 94 79 110 180 247 260 261 289 260 257 294 280 307 350 53 242 109 205 149 15 215 185 179 228 254 315 325 253 132 119 120 133 132 136 178 157 177 190 157 150 316 224 131 199 209 199 198 204
139 151 155 151 137 103 99 101 58 242 239 264 247 233 234 259 268 266 178 151 133 124 70 19 52 116 288 54 325 312 5 331 293 286 103 89 127 142 171 194 199 173 207 206 296 291 267 207 212 214 210 204 223 230
138 158 153 154 161 138 131 148 197 223 262 236 253 243 197 237 259 262 136 66 85 67 24 334 252 98 114 268 91 298 288 328 332 343 323 47 231 181 203 202 222 261 315 334 331 349 18 166 273 209 198 211 223 235
126 153 155 174 195 358 191 153 202 223 248 244 274 156 242 257 284 248 286 131 75 172 227 215 177 172 191 173 75 26 307 306 187 267 269 254 265 253 265 251 241 233 249 197 281 334 183 236 289 216 207 240 238 226
130 149 124 90 350 323 275 214 207 258 163 230 325 70 3 15 320 333 317 66 210 219 182 172 224 147 176 260 139 336 276 306 286 264 244 157 38 355 8 283 155 38 250 275 325 329 297 264 204 203 242 254 263 256
125 109 83 133 199 174 260 256 206 234 211 239 54 120 223 260 252 19 78 222 238 216 218 199 257 252 215 232 233 249 278 297 278 275 248 149 104 107 103 89 72 353 310 306 331 327 323 302 287 294 304 299 278 248
131 137 158 174 195 258 248 245 226 237 28 332 353 235 221 210 322 152 258 255 239 187 175 199 242 284 301 354 284 277 296 295 293 42 118 128 96 32 33 2 3 346 280 310 309 327 317 311 304 303 317 164 162 167
96 242 121 220 222 222 243 200 150 213 193 149 238 249 211 146 166 226 252 247 120 221 207 261 236 236 244 277 305 294 299 277 217 122 117 97 106 54 26 28 23 29 9 335 302 298 325 328 312 306 228 221 246 229
137 221 164 202 166 228 225 160 198 212 201 196 234 325 24 199 227 283 276 211 160 244 238 183 215 174 269 226 263 317 326 125 118 87 71 108 108 110 95 45 12 18 43 42 43 24 13 10 344 330 263 236 249 257
168 190 222 323 295 319 330 320 81 137 211 217 178 199 137 131 258 245 220 189 236 234 197 191 219 196 234 249 238 190 110 105 93 107 109 72 49 42 32 353 313 336 354 343 345 343 339 345 332 341 346 329 292 256
237 284 199 188 221 253 302 221 202 204 184 165 191 198 214 130 212 242 213 115 215 252 242 72 72 66 61 111 124 121 117 118 112 96 101 58 56 50 45 337 292 294 308 305 323 321 325 340 328 326 321 313 310 333
219 222 198 160 167 185 260 300 284 235 203 173 180 69 49 31 357 25 15 65 103 70 53 41 41 25 48 66 107 108 108 62 98 84 91 306 333 328 354 342 328 322 320 314 315 309 315 324 330 321 319 333 20 33
200 162 188 164 213 210 202 194 180 113 95 87 96 101 83 67 34 53 65 65 62 75 63 55 65 70 58 61 58 74 55 43 63 59 109 245 274 321 334 335 335 332 319 306 302 305 308 331 334 355 32 31 9 10
137 163 180 208 123 98 91 87 87 87 84 79 75 88 75 59 33 38 48 44 51 56 42 31 42 47 54 53 61 23 337 9 86 49 43 40 13 357 346 349 0 359 357 352 347 347 21 51 53 62 66 88 70 34
159 95 93 92 75 78 86 83 85 86 63 72 60 65 67 61 44 351 27 30 37 35 27 19 15 2 24 39 49 65 89 79 78 53 42 29 13 4 6 23 38 54 61 52 50 54 55 47 41 46 49 47 45 34
79 78 77 72 58 72 62 89 84 75 70 72 68 69 58 75 70 331 338 322 318 337 349 352 353 63 71 60 51 52 68 67 60 51 38 33 37 36 38 43 43 38 41 46 46 42 38 42 53 44 43 45 31 24